Location: Ehingen
(48.5975°N, 10.7989°E)
Time: 16:45:12
(UTC+00:00)

Daily predictions for brighter satellites

Satellite Brightness Start Highest point End
(mag) Time Altitude Azimuth Time Altitude Azimuth Time Altitude Azimuth
GENESIS II 4.5 20:00:24 10° NW 20:04:27 66° NE 20:08:29 10° SE
Meteor 2-10 Rocket 3.5 20:02:05 10° N 20:07:13 79° ENE 20:12:13 10° SSE
Okean 1 Rocket 3.5 20:03:20 10° NNW 20:07:48 66° W 20:12:13 10° S
Cosmos 407 Rocket 3.6 20:03:55 10° NNW 20:09:08 67° ENE 20:14:15 10° SSE
APEX 4.1 20:04:28 10° SSW 20:10:27 79° ESE 20:15:26 10° NNE
SL-14 R/B 3.6 20:07:11 10° SSW 20:11:01 69° W 20:14:56 10° N
S3M 4.0 20:05:21 10° S 20:11:34 77° E 20:17:44 10° NNE
Cosmos 1455 Rocket 3.4 20:08:43 10° N 20:13:00 52° ENE 20:17:14 10° SSE
USA 245 3.8 20:09:00 10° SSE 20:14:10 76° ENE 20:18:21 10° N
SL-16 R/B 4.3 20:09:27 10° WSW 20:14:31 32° NW 20:19:38 10° NNE
MetOp-B 4.3 20:11:30 10° S 20:16:51 76° WSW 20:22:15 10° NNW
SPOT 5 3.0 20:13:12 10° SSE 20:17:36 54° ENE 20:21:53 10° N
Cosmos 2056 Rocket 4.4 20:13:36 10° SSE 20:18:19 33° E 20:23:07 10° NE
Meteor 2-5 Rocket 4.1 20:13:17 10° SSE 20:18:32 47° E 20:23:49 10° NNE
SPOT 1/Viking Rocket 4.3 20:16:27 10° S 20:21:26 51° W 20:26:28 10° NNW
Cosmos 1271 Rocket 4.0 20:19:19 10° N 20:22:51 29° ENE 20:26:12 11° SE
Cosmos 1300 3.3 20:20:43 10° NNW 20:24:27 55° W 20:28:09 10° S
Cosmos 1025 Rocket 3.4 20:21:08 10° SSE 20:25:12 47° E 20:29:20 10° NNE
USA 32 4.5 20:24:43 10° SSE 20:29:40 46° E 20:34:40 10° NNE
ERS-1 Rocket 3.1 20:24:44 10° SSE 20:29:43 65° ENE 20:34:43 10° N
Cosmos 1607 4.5 20:25:44 10° S 20:31:21 36° ESE 20:36:56 10° NE
Cosmos 1140 Rocket 3.6 20:27:31 10° NNW 20:32:45 76° WSW 20:37:54 10° SSE
Cosmos 1953 4.1 20:31:44 10° NNW 20:35:08 28° W 20:38:31 10° SSW
Cosmos 1943 3.8 20:32:15 10° SW 20:37:51 64° WNW 20:43:29 10° NNE
CZ-2C R/B 4.0 20:36:40 10° NNE 20:41:12 50° E 20:45:37 10° S
Cosmos 1603 4.2 20:36:09 10° SW 20:41:49 67° WNW 20:47:34 10° NNE
Lacrosse 5 2.6 20:37:57 10° NW 20:42:58 53° NNE 20:47:57 10° ESE
Cosmos 1975 Rocket 3.1 20:41:25 10° S 20:45:54 89° WNW 20:50:22 10° N
H-2A R/B 4.3 20:43:09 10° N 20:46:49 27° WNW 20:50:32 10° WSW
Helios 1A Rocket 3.0 20:43:49 11° S 20:47:41 77° WSW 20:51:47 10° NNW
Ariane Rocket 4.4 20:44:31 10° SSW 20:49:08 34° W 20:53:47 10° NNW
Cosmos 1954 Rocket 4.2 20:44:35 10° NNW 20:49:53 68° ENE 20:54:15 15° SSE
Resurs 01 Rocket 3.9 20:50:33 10° SW 20:53:47 20° W 20:57:03 10° NW
Lacrosse 4 Rocket 3.4 20:54:22 10° WSW 20:58:04 31° NW 21:01:45 10° NNE
Tiangong 2.4 20:57:05 10° SW 20:59:35 21° S 21:00:12 20° SSE
Cosmos 2228 4.2 20:57:54 10° N 21:01:40 29° ENE 21:04:23 16° SE
Cosmos 1544 Rocket 3.5 20:59:52 10° N 21:04:13 90° E 21:07:38 16° S
Cosmos 1703 4.3 21:03:35 18° SE 21:05:38 29° E 21:09:00 10° NNE
Terra 1.9 21:02:52 14° S 21:06:57 76° WSW 21:11:44 10° NNW
FALCON 9 DEB 3.0 21:03:44 10° WSW 21:07:00 86° NNW 21:10:18 10° ENE
USA 267 3.2 21:02:24 10° ENE 21:08:58 73° SE 21:15:31 10° SW
SL-8 R/B 3.7 21:04:15 10° W 21:09:05 86° S 21:13:56 10° E
Cosmos 1980 Rocket 4.3 21:06:53 10° N 21:10:58 20° NE 21:15:03 10° E
Cosmos 1455 2.2 21:08:11 10° NNW 21:12:00 80° W 21:14:42 18° S
Meteor 1-24 Rocket 3.7 21:07:16 10° SSW 21:12:33 76° WNW 21:17:57 10° N
Cosmos 2315 Rocket 4.4 21:07:25 10° SSW 21:13:44 66° WNW 21:20:03 10° N
Cosmos 1697 Rocket 4.0 21:10:57 10° NNW 21:15:58 32° NE 21:20:57 10° ESE
NOSS 2-1 (C) 4.0 21:13:07 10° NW 21:17:29 77° NE 21:22:11 17° SE
Cosmos 1371 Rocket 4.1 21:13:25 10° SSW 21:18:38 79° WNW 21:23:57 10° NNE
RESURS DK-1 3.9 21:16:25 10° N 21:20:01 28° NE 21:23:13 12° ESE
Cosmos 1452 Rocket 4.2 21:17:03 19° SSE 21:20:13 36° ESE 21:24:59 10° NE
Spot 2 Rocket 4.5 21:15:28 10° S 21:20:15 42° W 21:25:06 10° NNW
ARIANE 5 R/B 3.0 21:23:37 17° S 21:26:57 62° WSW 21:31:24 10° NNW
NOSS 2-1 (D) 4.0 21:23:26 10° NW 21:27:52 89° NE 21:32:17 19° SE
ASTEX 1 4.1 21:24:34 10° NNE 21:29:17 40° E 21:32:06 21° SE
Lacrosse 5 rocket 1.2 21:25:38 10° WNW 21:29:29 68° SW 21:31:47 24° SE
Cosmos 2084 3.2 21:26:54 10° SSW 21:30:41 59° SE 21:34:30 10° NE
Cosmos 2074 Rocket 4.0 21:31:04 10° N 21:37:23 85° W 21:42:02 19° S
ATLAS 2AS CENTAUR R/B 2.8 21:33:07 10° NW 21:40:14 71° SW 21:44:51 21° SSE
Cosmos 1656 3.6 21:37:53 10° NNW 21:43:23 84° ENE 21:46:54 23° SSE
GP-B 3.9 21:39:24 10° NNE 21:43:34 38° E 21:45:40 24° SE
USA 234 3.3 21:38:52 18° SE 21:43:58 72° SW 21:50:33 10° WNW
Cosmos 1833 Rocket 3.4 21:44:38 23° SSE 21:47:16 35° ESE 21:52:19 10° NE
Cosmos 2154 Rocket 4.0 21:50:27 10° N 21:56:44 85° W 22:00:52 23° S
Cosmos 1271 Rocket 4.5 21:55:18 10° NW 21:58:39 26° W 22:01:16 14° SW
Nadezhda 1 Rocket 3.9 21:54:38 21° S 21:58:58 81° E 22:05:04 10° N
Cosmos 2082 Rocket 3.7 21:59:43 17° SE 22:01:31 20° E 22:05:33 10° NE
Cosmos 1741 Rocket 4.0 21:58:42 10° NNW 22:04:02 85° WSW 22:07:02 27° SSE
Cosmos 1610 Rocket 4.5 21:58:27 10° N 22:04:39 83° W 22:08:40 24° S
Cosmos 2344 4.3 22:00:27 10° NW 22:09:09 77° NE 22:20:43 12° SE
Cosmos 968 Rocket 4.0 22:20:16 10° NNW 22:25:20 51° ENE 22:28:30 22° SE
Cosmos 1606 Rocket 3.8 22:21:15 10° NNW 22:25:31 60° W 22:27:26 30° SSW
H-2A R/B 3.8 22:21:42 10° NNE 22:25:49 52° E 22:27:16 35° SSE
Lacrosse 5 2.3 22:21:04 10° WNW 22:25:57 46° SW 22:27:56 31° S
COSMOS 2406 3.7 22:25:00 28° SSE 22:27:32 43° ESE 22:32:58 10° NE
Meteor 1-11 4.3 22:30:33 29° S 22:33:30 67° E 22:39:04 10° NNE
SL-8 Rocket 4.0 22:29:39 10° N 22:35:59 78° E 22:39:30 28° SSE
Cosmos 2369 3.9 22:31:53 10° NNW 22:37:38 67° ENE 22:41:14 23° SE
SJ 16-02 4.0 22:36:46 10° NNE 22:38:45 13° NE 22:40:44 10° ENE
Cosmos 1328 4.2 22:37:11 28° SW 22:39:05 57° WNW 22:43:04 10° N
Cosmos 2228 4.4 22:35:28 10° NNW 22:39:06 28° W 22:41:10 19° SW
Cosmos 2218 Rocket 4.2 22:33:09 10° N 22:39:34 71° E 22:43:17 27° SSE
Cosmos 2341 Rocket 4.0 22:35:06 10° N 22:41:29 83° W 22:45:04 28° S
SL-16 R/B 4.1 22:38:05 10° N 22:42:42 25° NE 22:47:17 10° E
Cosmos 1408 2.3 22:43:33 51° S 22:44:20 83° ESE 22:47:49 10° N
Cosmos 1825 2.8 22:46:54 35° SE 22:47:45 40° E 22:51:17 10° NNE
ALOS 2 2.6 22:46:37 36° S 22:48:21 76° WSW 22:52:46 10° NNW
Cosmos 2366 rocket 4.0 22:42:53 10° N 22:49:13 81° E 22:52:47 28° SSE
Cosmos 1900 4.4 22:45:44 10° NW 22:50:56 88° WSW 22:53:35 30° SSE
Cosmos 1867 4.3 22:45:55 10° NNW 22:51:16 50° NE 22:56:07 12° ESE
SL-8 R/B 3.6 22:46:48 10° W 22:51:38 77° SSW 22:56:28 10° ESE
USA 267 4.0 22:45:32 10° NE 22:51:52 54° NNW 22:58:13 10° W
Cosmos 1726 Rocket 4.3 22:47:49 10° NNW 22:51:53 41° W 22:53:36 28° SW
Cosmos 967 Rocket 4.5 22:51:24 24° SSW 22:55:29 72° ESE 23:01:57 10° NE
Cosmos 1980 Rocket 2.2 22:50:11 10° NNW 22:55:56 80° ENE 22:59:14 26° SE
RESURS DK-1 3.2 22:54:16 10° NW 22:58:05 37° WSW 22:59:03 32° SW
Cosmos 1697 Rocket 3.0 22:54:45 10° NW 23:00:12 53° WSW 23:02:42 30° S
Cosmos 1331 Rocket 4.4 22:57:22 20° SW 23:00:59 61° WNW 23:06:17 10° NNE
Cosmos 1812 Rocket 4.4 22:57:31 10° N 23:01:50 44° ENE 23:03:53 26° SE
Cosmos 1892 2.9 23:06:34 39° SW 23:07:44 62° WNW 23:11:28 10° N
Lacrosse 5 rocket 3.6 23:06:25 10° WSW 23:07:17 11° WSW 23:07:17 11° WSW
ERS-2 2.0 23:04:59 10° NNE 23:08:36 78° ESE 23:09:26 50° S
ADEOS Rocket 3.5 23:05:35 27° S 23:09:38 68° WSW 23:17:10 10° NNW
USA 276 1.7 23:10:14 76° W 23:10:26 89° N 23:13:22 10° ENE
Cosmos 2084 Rocket 3.4 23:07:15 10° NW 23:11:09 71° NE 23:13:11 28° SE
In-Cosmos 22 Rocket 4.2 23:08:21 30° S 23:11:15 89° E 23:16:49 10° NNE
Cosmos 2058 Rocket 3.8 23:11:00 10° NNW 23:15:07 41° W 23:16:43 29° SW
Cosmos 1602 Rocket 3.8 23:15:24 36° SSE 23:16:52 55° E 23:21:06 10° NNE
Cosmos 2181 Rocket 4.1 23:15:18 27° SSW 23:18:48 72° W 23:25:01 10° N
Cosmos 2278 3.8 23:18:12 10° NNW 23:23:57 79° ENE 23:27:31 24° SE
Cosmos 1302 Rocket 4.0 23:21:10 28° SSW 23:23:58 76° WNW 23:29:12 10° NNE
Cosmos 2322 Rocket 3.7 23:19:52 10° NNW 23:24:58 33° NE 23:30:04 10° ESE
Geosat FO 4.4 23:25:31 53° SSE 23:26:14 77° WSW 23:29:46 10° NNW
USA 234 4.4 23:26:11 21° SW 23:27:44 22° SW 23:32:43 10° WNW
ATLAS 2AS CENTAUR R/B 4.4 23:26:07 10° WNW 23:29:49 15° WSW 23:32:16 13° SW
Cosmos 1833 Rocket 3.6 23:26:16 13° SW 23:31:05 44° NW 23:36:29 10° NNE
CZ-2D R/B 4.3 23:32:45 10° NE 23:35:31 14° E 23:38:18 10° ESE
Geosat 4.0 23:35:56 24° SE 23:39:04 81° ENE 23:44:07 10° NNW
BREEZE-M DEB (TANK) 4.2 23:37:11 10° WNW 23:41:04 84° SSW 23:58:40 10° ESE
Okean 1-7 Rocket 4.2 23:39:49 29° SW 23:41:44 48° WNW 23:46:04 10° N
Cosmos 1626 Rocket 4.0 23:42:03 31° SW 23:43:48 53° WNW 23:48:04 10° N
Cosmos 2082 Rocket 2.3 23:41:31 25° SW 23:44:59 74° WNW 23:50:44 10° NNE
Cosmos 1821 Rocket 4.0 23:41:11 10° NNW 23:47:30 77° W 23:50:56 28° S
Cosmos 1869 4.3 23:46:31 10° NNW 23:49:58 32° W 23:50:55 28° WSW
ATLAS 5 CENTAUR R/B 2.1 23:51:04 31° SE 23:51:36 33° ESE 23:55:17 10° NE
Cosmos 1238 4.0 23:52:31 62° SSE 23:52:56 79° E 23:55:58 10° N
Cosmos 1825 Rocket 3.7 23:53:55 34° SSE 23:55:36 61° E 23:59:53 10° NNE
